RH
52 56 55 51 48 45 40 39 38 38 38 38 35 32 31 32 33 29 34 35 33 30 27 20 19 20 20 16 17 17 17 16 20 22 22 29 26 29 34 35 39 34 37
48 55 56 57 52 50 45 40 38 39 38 38 34 31 30 32 34 30 39 42 38 39 33 22 20 19 16 14 18 15 13 15 18 21 26 28 29 32 31 34 30 34 32
47 49 53 55 58 55 51 45 40 39 39 37 35 32 32 33 35 34 49 49 47 45 38 24 17 19 15 13 14 13 14 16 19 22 25 28 25 28 30 27 25 24 21
51 52 52 49 53 58 55 50 46 41 39 38 35 34 34 35 37 50 59 54 46 38 33 22 15 14 14 14 14 15 16 17 19 21 23 22 22 22 22 21 19 19 19
44 47 49 49 49 56 59 55 47 44 38 41 43 40 42 42 47 59 66 55 42 32 26 20 14 13 16 18 18 17 17 17 18 19 20 19 19 18 19 19 18 19 20
49 44 45 46 47 47 55 58 52 46 41 38 41 49 49 50 56 64 69 57 42 29 27 22 16 14 17 19 20 19 18 18 18 18 19 19 19 19 18 19 20 22 23
54 49 49 48 47 49 51 56 58 50 42 38 38 44 47 48 63 67 66 56 40 32 28 23 19 16 17 19 20 20 19 18 19 20 20 21 21 20 20 20 22 24 24
59 61 52 47 44 47 54 60 61 56 48 41 38 40 48 52 56 68 65 57 41 33 30 23 20 16 17 19 20 21 20 19 19 20 21 22 22 22 21 22 24 24 23
68 67 74 58 48 46 49 58 63 62 57 49 42 41 49 58 56 62 66 60 43 34 30 26 22 16 17 18 19 21 21 21 20 20 21 22 22 22 22 24 25 25 24
74 69 73 80 66 54 53 52 57 58 59 59 53 48 46 53 56 61 61 59 47 36 31 30 27 18 17 18 19 21 21 22 22 22 21 21 21 22 23 25 25 25 25
64 68 77 82 83 77 62 52 52 59 57 60 61 60 53 54 56 62 65 63 47 37 32 34 31 22 19 18 19 21 22 21 22 21 21 20 20 21 23 25 25 24 25
54 64 73 77 77 80 70 58 50 53 57 55 61 66 63 61 59 59 66 70 51 38 35 38 35 26 20 20 20 21 22 22 22 22 21 21 21 22 23 24 24 25 26
49 55 69 77 80 80 77 66 63 59 61 61 59 61 67 70 68 64 64 66 60 43 42 44 42 34 25 22 21 22 22 23 22 22 23 23 24 24 25 26 27 27 28
45 50 55 68 79 81 76 75 63 60 68 62 65 65 68 72 76 76 68 66 64 52 46 47 45 40 36 25 22 22 23 23 23 24 25 25 26 26 26 30 28 30 31
39 46 50 61 72 73 77 71 65 61 60 67 67 67 65 68 77 80 75 68 68 70 49 47 48 45 43 32 25 24 23 23 24 24 26 28 28 28 27 28 30 27 27
32 39 48 50 63 66 70 75 64 57 58 65 70 69 72 70 77 81 86 74 75 82 58 54 52 50 49 38 29 28 26 25 26 26 28 30 31 32 30 30 30 29 31
32 34 42 48 50 58 65 69 66 56 50 58 62 66 64 63 72 76 87 84 82 88 62 60 54 55 51 43 34 31 30 28 28 30 32 34 35 35 35 35 34 36 38
32 35 39 48 50 52 60 64 65 60 52 51 57 60 62 60 60 74 80 85 79 92 69 64 62 59 54 49 39 34 34 31 30 33 35 36 38 39 40 40 40 40 41
25 33 39 43 47 48 51 55 56 52 49 45 51 56 52 55 58 66 74 80 86 91 88 70 62 59 60 54 47 39 37 36 35 36 36 37 40 42 45 45 46 49 51
22 26 35 43 47 52 50 49 49 46 43 41 43 46 52 54 54 58 73 80 90 98 98 80 64 67 61 62 56 44 40 41 43 42 42 45 47 50 55 56 58 57 55
21 22 29 39 46 49 50 49 47 44 41 40 43 42 43 53 59 59 67 77 95 96 94 82 80 71 66 64 62 54 47 46 46 45 46 49 53 54 60 61 63 65 63
22 21 26 34 43 47 46 46 45 46 43 41 41 41 40 49 52 55 61 79 92 95 94 90 86 78 71 70 64 62 55 48 48 49 52 56 59 62 67 67 72 72 69
24 23 25 30 36 41 43 42 42 42 39 39 39 44 51 59 58 64 60 67 83 93 92 91 92 84 76 75 68 66 66 60 56 55 59 60 66 76 76 75 77 80 77
27 27 27 30 34 38 42 44 44 41 41 41 45 55 65 74 77 81 76 72 78 86 88 88 88 85 80 74 71 65 68 70 67 63 69 75 80 79 82 81 85 88 87
35 31 31 35 41 47 46 48 47 45 45 51 62 68 75 77 80 83 85 82 87 96 88 83 81 77 75 74 76 73 71 66 70 74 83 83 87 91 90 91 92 92 90
39 36 41 42 45 46 47 47 48 47 52 63 75 80 81 81 88 92 92 88 92 99 94 93 87 77 74 76 76 77 77 82 89 90 87 87 88 88 90 90 90 93 92